954  
ASUS43 KFSD 272302  
RWRFSD  
 
WEATHER ROUNDUP FOR SE SOUTH DAKOTA/SW MINNESOTA/NW IOWA  
NATIONAL WEATHER SERVICE SIOUX FALLS SD  
600 PM CDT TUE SEP 27 2022  
 
NOTE: "FAIR" INDICATES FEW OR NO CLOUDS BELOW 12,000 FEET WITH NO  
SIGNIFICANT WEATHER AND OR S TO VISIBILITY
.  
 
 
SDZ038>040-050-052>070-280000-  
SOUTHEAST SOUTH DAKOTA  
 
CITY SKY/WX TMP DP RH WIND PRES REMARKS
 
BROOKINGS SUNNY N/A N/A N/A NE9 30.30R  
CHAMBERLAIN NOT AVBL  
HURON SUNNY 69 37 30 NE10 30.27R  
MADISON SUNNY 64 36 34 NE12 30.28R  
MITCHELL SUNNY 73 37 27 NE12 30.25R  
SIOUX FALLS PTSUNNY 68 38 33 NE12 30.26R  
WINNER SUNNY 75 35 23 NE10 30.24S  
YANKTON SUNNY 71 40 32 NE10 30.24R  

 
 
MNZ071-072-080-081-089-090-097-098-280000-  
SOUTHWEST MINNESOTA  
 
CITY SKY/WX TMP DP RH WIND PRES REMARKS
 
FAIRMONT SUNNY 62 22 21 N9 30.29R  
JACKSON SUNNY 61 23 23 N10 30.29R  
LUVERNE SUNNY 63 32 31 NE6 30.28R  
MARSHALL SUNNY 61 22 22 NE9 30.31R  
MONTEVIDEO SUNNY 63 27 25 NE8 30.31S  
REDWOOD FALLS SUNNY 62 26 25 N7 30.30R  
TRACY SUNNY 62 13 15 NE9 30.31R  
WINDOM SUNNY 61 23 23 N9 30.29R  
WORTHINGTON SUNNY 62 25 24 NE12 30.29R  

 
 
IAZ001>003-012>014-020>022-031-032-NEZ013-014-SDZ071-280000-  
NORTHWEST IOWA  
 
CITY SKY/WX TMP DP RH WIND PRES REMARKS
 
ESTHERVILLE SUNNY 63 26 24 N13 30.28R  
SIOUX CITY SUNNY 73 39 29 NE12 30.22R  
SPENCER SUNNY 67 28 23 N13 30.27R  

 
 
ABBREVIATIONS USED IN REMARKS  
TC - TEMPERATURE IN CELSIUS  
WCI - WIND CHILL INDEX  
HX - HEAT INDEX  
VSB - VISIBILITY  
 
 
 
CLICK HERE TO GO TO PREVIOUS BULLETINS.

The Nexlab SD Page
The Nexlab IA Page
The Nexlab MN Page
The Nexlab NE Page Main Text Page